Zurück zum Katalog

GAOFEN 1-02

AktivWissenschaftSSO
NORAD 43259·PAYLOAD·🇨🇳 China

Gestartet Mar 31, 2018 von Taiyuan Satellite Launch Center

Loading…

Nächste Überflüge (nächste 24 Stunden)

TLE

AktuellSource: Space-Track

Epoche: Sep 14, 2026, 23:01 UTC

1 43259U 18031A   26257.95920209  .00000630  00000-0  97905-4 0  9997
2 43259  98.0443 320.1930 0004220  84.3961 275.7729 14.76481353455948

Verfolge GAOFEN 1-02 in Echtzeit mit AllMySat

Download on the App Store